EW9991 Weather Reports


Display with metric or nautical units.
time (UTC)temp
F
wind
direction
speed
MPH
gust
MPH
rain 1hr
in
rain 24hr
in
rain mn
in
humidity
%
barometer
mb
20220625053355 68 188 0.0 1.0 0.00 0.00 0.00 28 1014.3
20220625052854 69 196 0.0 1.0 0.00 0.00 0.00 28 1014.7
20220625052341 69 194 0.0 1.0 0.00 0.00 0.00 27 1014.3
20220625051839 69 191 0.0 1.0 0.00 0.00 0.00 27 1014.7
20220625051335 69 180 0.0 2.0 0.00 0.00 0.00 27 1014.3
20220625050821 69 175 0.0 0.0 0.00 0.00 0.00 27 1014.7
20220625050255 69 187 0.0 0.0 0.00 0.00 0.00 26 1014.7
20220625045759 69 151 0.0 0.0 0.00 0.00 0.00 25 1014.7
20220625045254 69 199 0.0 0.0 0.00 0.00 0.00 25 1014.7
20220625044757 69 184 0.0 1.0 0.00 0.00 0.00 25 1014.7
20220625044245 69 191 0.0 0.0 0.00 0.00 0.00 25 1014.7
20220625043743 69 183 0.0 1.0 0.00 0.00 0.00 25 1014.7
20220625043219 69 193 0.0 1.0 0.00 0.00 0.00 24 1014.7
20220625042656 69 198 0.0 1.0 0.00 0.00 0.00 24 1014.7
20220625042151 69 207 0.0 1.0 0.00 0.00 0.00 25 1014.7
20220625041640 69 187 0.0 0.0 0.00 0.00 0.00 26 1014.7
20220625041137 69 174 0.0 0.0 0.00 0.00 0.00 26 1014.7
20220625040632 69 192 0.0 0.0 0.00 0.00 0.00 26 1014.7
20220625040116 69 189 0.0 0.0 0.00 0.00 0.00 25 1014.7
20220625035601 69 175 0.0 0.0 0.00 0.00 0.00 25 1014.7
20220625035100 69 149 0.0 1.0 0.00 0.00 0.00 25 1014.7
20220625034557 69 183 0.0 1.0 0.00 0.00 0.00 24 1014.7
20220625034039 69 178 0.0 0.0 0.00 0.00 0.00 24 1014.7
20220625033539 69 186 0.0 0.0 0.00 0.00 0.00 24 1014.7
20220625033011 70 177 0.0 0.0 0.00 0.00 0.00 24 1014.7
20220625032508 70 181 0.0 0.0 0.00 0.00 0.00 23 1014.7
20220625032002 70 186 0.0 1.0 0.00 0.00 0.00 21 1014.7
20220625031457 70 198 0.0 1.0 0.00 0.00 0.00 21 1014.7
20220625030958 70 194 0.0 1.0 0.00 0.00 0.00 21 1014.7
20220625030457 70 206 0.0 0.0 0.00 0.00 0.00 21 1014.7
20220625025941 70 197 0.0 0.0 0.00 0.00 0.00 21 1014.7
20220625025440 70 199 0.0 0.0 0.00 0.00 0.00 21 1014.7
20220625024935 70 191 0.0 0.0 0.00 0.00 0.00 20 1014.7
20220625024418 70 184 0.0 0.0 0.00 0.00 0.00 20 1014.7
20220625023907 70 194 0.0 0.0 0.00 0.00 0.00 20 1014.7
20220625023356 70 189 0.0 0.0 0.00 0.00 0.00 20 1014.3
20220625022854 70 197 0.0 1.0 0.00 0.00 0.00 20 1014.7
20220625022354 70 196 0.0 1.0 0.00 0.00 0.00 20 1014.7
20220625021839 69 197 0.0 0.0 0.00 0.00 0.00 21 1014.7
20220625021320 68 184 0.0 0.0 0.00 0.00 0.00 21 1014.3
20220625020821 68 179 0.0 0.0 0.00 0.00 0.00 20 1014.7
20220625020255 68 178 0.0 0.0 0.00 0.00 0.00 20 1014.3
20220625015753 68 174 0.0 0.0 0.00 0.00 0.00 20 1014.3
20220625015239 68 173 0.0 0.0 0.00 0.00 0.00 21 1014.3
20220625014737 67 168 0.0 0.0 0.00 0.00 0.00 22 1014.3
20220625014233 67 178 0.0 0.0 0.00 0.00 0.00 22 1014.3
20220625013716 67 178 0.0 0.0 0.00 0.00 0.00 22 1014.0
20220625013159 67 178 0.0 0.0 0.00 0.00 0.00 22 1014.0
20220625012654 68 178 0.0 0.0 0.00 0.00 0.00 22 1014.3
20220625012158 68 175 0.0 0.0 0.00 0.00 0.00 21 1014.3
20220625011654 68 184 0.0 0.0 0.00 0.00 0.00 20 1014.0
20220625011156 68 184 0.0 0.0 0.00 0.00 0.00 20 1014.0
20220625010653 69 178 0.0 0.0 0.00 0.00 0.00 20 1014.0
20220625010154 69 185 0.0 0.0 0.00 0.00 0.00 20 1014.0
20220625005648 69 179 0.0 0.0 0.00 0.00 0.00 20 1014.0
20220625005121 69 184 0.0 0.0 0.00 0.00 0.00 20 1013.7
20220625004606 70 184 0.0 0.0 0.00 0.00 0.00 20 1013.7
20220625004054 70 186 0.0 0.0 0.00 0.00 0.00 19 1013.7
20220625003555 70 186 0.0 0.0 0.00 0.00 0.00 19 1013.7
20220625003045 70 181 0.0 1.0 0.00 0.00 0.00 19 1013.7
20220625002545 71 144 0.0 1.0 0.00 0.00 0.00 19 1013.7
20220625002019 71 187 0.0 2.0 0.00 0.00 0.00 19 1013.7
20220625001454 71 201 0.0 1.0 0.00 0.00 0.00 19 1013.7
20220625000957 71 184 0.0 1.0 0.00 0.00 0.00 19 1013.7
20220625000456 72 133 1.0 2.0 0.00 0.00 0.00 18 1013.7
20220624235941 72 172 0.0 2.0 0.00 0.00 0.00 17 1013.7
20220624235440 72 199 0.0 2.0 0.00 0.00 0.00 17 1013.7
20220624234935 73 156 0.0 2.0 0.00 0.00 0.00 17 1013.7
20220624234420 73 120 0.0 2.0 0.00 0.00 0.00 16 1013.7
20220624233904 73 170 0.0 2.0 0.00 0.00 0.00 16 1013.7
20220624233358 74 63 1.0 2.0 0.00 0.00 0.00 12 1013.3
20220624232838 74 184 0.0 1.0 0.00 0.00 0.00 12 1013.3
20220624232336 74 114 0.0 1.0 0.00 0.00 0.00 12 1013.3
20220624231833 74 101 0.0 1.0 0.00 0.00 0.00 12 1013.3
20220624231319 74 172 0.0 1.0 0.00 0.00 0.00 12 1013.3
20220624230821 75 187 0.0 1.0 0.00 0.00 0.00 12 1013.3
20220624230254 75 137 0.0 1.0 0.00 0.00 0.00 11 1013.0
20220624225735 76 139 1.0 1.0 0.00 0.00 0.00 11 1013.0
20220624225206 77 174 0.0 1.0 0.00 0.00 0.00 11 1013.0
20220624224648 77 184 0.0 2.0 0.00 0.00 0.00 18 1013.0
20220624224143 77 169 0.0 2.0 0.00 0.00 0.00 17 1013.0
20220624223636 77 180 0.0 2.0 0.00 0.00 0.00 16 1013.0
20220624223124 79 160 0.0 2.0 0.00 0.00 0.00 14 1013.0
20220624222607 80 181 0.0 2.0 0.00 0.00 0.00 15 1013.0
20220624222055 79 125 0.0 1.0 0.00 0.00 0.00 16 1013.0
20220624221537 77 181 0.0 1.0 0.00 0.00 0.00 10 1013.0
20220624221014 76 193 0.0 1.0 0.00 0.00 0.00 11 1013.0
20220624220512 76 123 0.0 0.0 0.00 0.00 0.00 11 1013.0
20220624215956 76 189 0.0 0.0 0.00 0.00 0.00 11 1012.7
20220624215435 77 182 0.0 0.0 0.00 0.00 0.00 18 1012.7
20220624214936 77 168 0.0 0.0 0.00 0.00 0.00 17 1012.7
20220624214432 77 227 0.0 1.0 0.00 0.00 0.00 17 1012.7
20220624213916 78 186 0.0 1.0 0.00 0.00 0.00 16 1012.7
20220624213416 79 169 0.0 2.0 0.00 0.00 0.00 16 1012.7
20220624212914 79 76 0.0 2.0 0.00 0.00 0.00 16 1012.7
20220624212357 79 178 0.0 2.0 0.00 0.00 0.00 14 1013.0
20220624211858 77 232 0.0 1.0 0.00 0.00 0.00 15 1012.7
20220624211353 77 98 0.0 2.0 0.00 0.00 0.00 14 1013.0
20220624210853 77 71 0.0 2.0 0.00 0.00 0.00 14 1013.0
20220624210339 79 210 1.0 2.0 0.00 0.00 0.00 14 1012.7
20220624205816 77 69 0.0 2.0 0.00 0.00 0.00 15 1012.7
20220624205300 79 158 0.0 2.0 0.00 0.00 0.00 12 1012.7
20220624204756 78 205 0.0 3.0 0.00 0.00 0.00 13 1013.0
20220624204254 78 26 0.0 2.0 0.00 0.00 0.00 13 1012.7
20220624203755 77 50 0.0 2.0 0.00 0.00 0.00 13 1012.7
20220624203254 78 290 0.0 2.0 0.00 0.00 0.00 13 1012.7
20220624202735 77 202 0.0 2.0 0.00 0.00 0.00 13 1012.7
20220624202219 77 182 1.0 3.0 0.00 0.00 0.00 14 1013.0
20220624201657 76 339 1.0 4.0 0.00 0.00 0.00 14 1013.0
20220624201156 76 107 2.0 3.0 0.00 0.00 0.00 14 1012.7
20220624200657 76 135 1.0 3.0 0.00 0.00 0.00 13 1013.0
20220624200139 75 186 0.0 6.0 0.00 0.00 0.00 12 1013.0
20220624195637 76 139 1.0 6.0 0.00 0.00 0.00 11 1013.0
20220624195116 84 134 0.0 2.0 0.00 0.00 0.00 12 1013.0
20220624194616 84 341 0.0 2.0 0.00 0.00 0.00 11 1012.7
20220624194059 83 222 0.0 2.0 0.00 0.00 0.00 12 1012.7
20220624193557 83 51 0.0 3.0 0.00 0.00 0.00 12 1013.0
20220624193057 83 181 0.0 3.0 0.00 0.00 0.00 12 1012.7
20220624192554 84 191 0.0 2.0 0.00 0.00 0.00 11 1013.0
20220624192036 81 80 0.0 3.0 0.00 0.00 0.00 10 1013.0
20220624191532 82 184 0.0 3.0 0.00 0.00 0.00 10 1013.0
20220624191015 81 220 2.0 3.0 0.00 0.00 0.00 10 1013.0
20220624190500 82 99 0.0 3.0 0.00 0.00 0.00 10 1013.0
20220624185957 80 197 0.0 2.0 0.00 0.00 0.00 10 1013.0
20220624185456 84 51 2.0 2.0 0.00 0.00 0.00 11 1013.0
20220624184953 83 228 0.0 2.0 0.00 0.00 0.00 12 1013.0
20220624184439 84 207 0.0 3.0 0.00 0.00 0.00 12 1013.0
20220624183917 82 202 0.0 1.0 0.00 0.00 0.00 12 1012.7
20220624183416 83 33 1.0 2.0 0.00 0.00 0.00 12 1013.0
20220624182912 81 244 0.0 3.0 0.00 0.00 0.00 10 1013.0
20220624182357 80 109 0.0 3.0 0.00 0.00 0.00 10 1013.0
20220624181856 82 221 1.0 3.0 0.00 0.00 0.00 10 1013.0
20220624181339 84 187 0.0 2.0 0.00 0.00 0.00 11 1013.0
20220624180836 83 170 0.0 2.0 0.00 0.00 0.00 12 1013.0
20220624180332 83 180 1.0 1.0 0.00 0.00 0.00 12 1013.0
20220624175815 82 217 0.0 1.0 0.00 0.00 0.00 10 1012.7
20220624175315 81 203 0.0 6.0 0.00 0.00 0.00 10 1013.0
20220624174754 80 182 0.0 6.0 0.00 0.00 0.00 10 1013.3
20220624174257 81 47 1.0 2.0 0.00 0.00 0.00 10 1013.0
20220624173739 80 168 0.0 3.0 0.00 0.00 0.00 10 1013.0
20220624173239 78 196 1.0 3.0 0.00 0.00 0.00 10 1013.0
20220624172735 81 158 0.0 2.0 0.00 0.00 0.00 10 1013.0
20220624172217 81 224 0.0 1.0 0.00 0.00 0.00 10 1013.0
20220624171712 82 180 0.0 1.0 0.00 0.00 0.00 10 1013.0
20220624171156 81 122 0.0 3.0 0.00 0.00 0.00 10 1013.0
20220624170655 79 198 0.0 3.0 0.00 0.00 0.00 11 1013.0
20220624170155 79 253 0.0 2.0 0.00 0.00 0.00 11 1013.0
20220624165642 79 340 0.0 3.0 0.00 0.00 0.00 11 1013.3
20220624165136 78 174 0.0 3.0 0.00 0.00 0.00 10 1013.3
20220624164618 80 167 0.0 2.0 0.00 0.00 0.00 11 1013.3
20220624164114 79 200 0.0 2.0 0.00 0.00 0.00 13 1013.0
20220624163556 79 359 0.0 1.0 0.00 0.00 0.00 14 1013.3
20220624163033 79 240 0.0 2.0 0.00 0.00 0.00 14 1013.3
20220624162507 78 187 0.0 2.0 0.00 0.00 0.00 14 1013.3
20220624161958 78 225 0.0 2.0 0.00 0.00 0.00 15 1013.3
20220624161450 77 132 0.0 2.0 0.00 0.00 0.00 14 1013.3
20220624160951 78 161 0.0 1.0 0.00 0.00 0.00 13 1013.3
20220624160424 79 186 0.0 1.0 0.00 0.00 0.00 11 1013.3
20220624155914 79 184 0.0 1.0 0.00 0.00 0.00 11 1013.3
20220624155354 79 206 0.0 1.0 0.00 0.00 0.00 13 1013.3
20220624154856 78 151 0.0 1.0 0.00 0.00 0.00 13 1013.3
20220624154342 78 198 0.0 1.0 0.00 0.00 0.00 13 1013.3
20220624153820 78 209 0.0 1.0 0.00 0.00 0.00 11 1013.3
20220624153255 77 101 0.0 2.0 0.00 0.00 0.00 10 1013.3
20220624152754 77 303 1.0 3.0 0.00 0.00 0.00 10 1013.3
20220624152254 77 215 0.0 3.0 0.00 0.00 0.00 12 1013.3
20220624151741 77 261 0.0 1.0 0.00 0.00 0.00 14 1013.7
20220624151240 75 183 0.0 2.0 0.00 0.00 0.00 16 1013.3
20220624150735 75 187 0.0 2.0 0.00 0.00 0.00 14 1013.7
20220624150221 77 219 0.0 1.0 0.00 0.00 0.00 10 1013.7
20220624145659 77 185 0.0 1.0 0.00 0.00 0.00 12 1013.7
20220624145155 76 225 0.0 1.0 0.00 0.00 0.00 15 1013.3
20220624144655 77 180 0.0 2.0 0.00 0.00 0.00 14 1013.7
20220624144153 77 250 0.0 2.0 0.00 0.00 0.00 15 1013.7
20220624143639 76 236 1.0 1.0 0.00 0.00 0.00 15 1013.3
20220624143119 75 184 0.0 2.0 0.00 0.00 0.00 15 1013.7
20220624142619 76 181 0.0 2.0 0.00 0.00 0.00 14 1013.7
20220624142055 75 225 0.0 1.0 0.00 0.00 0.00 14 1013.7
20220624141558 76 195 0.0 1.0 0.00 0.00 0.00 12 1013.7
20220624141054 75 194 0.0 1.0 0.00 0.00 0.00 11 1013.7
20220624140550 76 187 0.0 1.0 0.00 0.00 0.00 11 1013.7
20220624140040 75 181 0.0 1.0 0.00 0.00 0.00 13 1013.7
20220624135535 74 204 0.0 1.0 0.00 0.00 0.00 13 1013.7
20220624135021 73 199 0.0 1.0 0.00 0.00 0.00 13 1013.7
20220624134454 74 223 0.0 1.0 0.00 0.00 0.00 15 1013.7
20220624133955 75 146 0.0 1.0 0.00 0.00 0.00 16 1013.7
20220624133456 73 191 0.0 1.0 0.00 0.00 0.00 15 1013.7
20220624132936 73 186 0.0 1.0 0.00 0.00 0.00 14 1013.7
20220624132432 73 199 1.0 1.0 0.00 0.00 0.00 17 1013.7
20220624131919 73 183 0.0 1.0 0.00 0.00 0.00 17 1014.0
20220624131423 73 210 0.0 1.0 0.00 0.00 0.00 18 1013.7
20220624130856 73 192 0.0 1.0 0.00 0.00 0.00 15 1014.0
20220624130354 72 203 0.0 1.0 0.00 0.00 0.00 18 1014.0
20220624125853 71 193 0.0 1.0 0.00 0.00 0.00 19 1014.0
20220624125340 72 174 0.0 0.0 0.00 0.00 0.00 19 1014.0
20220624124839 70 175 0.0 0.0 0.00 0.00 0.00 15 1014.0
20220624124335 69 182 0.0 0.0 0.00 0.00 0.00 20 1013.7
20220624123818 69 183 0.0 0.0 0.00 0.00 0.00 20 1014.0
20220624123257 69 182 0.0 0.0 0.00 0.00 0.00 20 1013.7
20220624122758 68 146 0.0 0.0 0.00 0.00 0.00 20 1014.0
20220624122253 68 185 0.0 0.0 0.00 0.00 0.00 21 1014.0
20220624121757 67 183 0.0 0.0 0.00 0.00 0.00 21 1013.7
20220624121244 67 184 0.0 0.0 0.00 0.00 0.00 21 1014.0
20220624120742 67 190 0.0 0.0 0.00 0.00 0.00 21 1014.0
20220624120238 67 178 0.0 0.0 0.00 0.00 0.00 21 1013.7
20220624115728 66 184 0.0 0.0 0.00 0.00 0.00 23 1013.7
20220624115224 66 186 0.0 0.0 0.00 0.00 0.00 23 1013.7
20220624114706 65 186 0.0 0.0 0.00 0.00 0.00 23 1013.7
20220624114154 65 186 0.0 0.0 0.00 0.00 0.00 23 1013.7
20220624113656 65 182 0.0 0.0 0.00 0.00 0.00 23 1013.7
20220624113143 64 182 0.0 0.0 0.00 0.00 0.00 23 1013.7
20220624112621 64 104 0.0 0.0 0.00 0.00 0.00 23 1013.7
20220624112057 64 186 0.0 0.0 0.00 0.00 0.00 22 1013.7
20220624111557 64 190 0.0 0.0 0.00 0.00 0.00 23 1013.7
20220624111054 63 200 0.0 0.0 0.00 0.00 0.00 22 1014.0
20220624110540 63 185 0.0 0.0 0.00 0.00 0.00 22 1013.7
20220624110041 62 186 0.0 0.0 0.00 0.00 0.00 23 1013.7
20220624105519 62 184 0.0 0.0 0.00 0.00 0.00 25 1013.7
20220624105022 62 196 0.0 1.0 0.00 0.00 0.00 26 1013.7
20220624104504 62 183 0.0 1.0 0.00 0.00 0.00 27 1013.7
20220624103950 62 189 0.0 0.0 0.00 0.00 0.00 27 1013.7
20220624103438 61 187 0.0 0.0 0.00 0.00 0.00 29 1013.7
20220624102938 61 184 0.0 0.0 0.00 0.00 0.00 29 1013.7
20220624102432 61 185 0.0 0.0 0.00 0.00 0.00 29 1013.7
20220624101917 61 197 0.0 0.0 0.00 0.00 0.00 29 1013.7
20220624101354 61 181 0.0 0.0 0.00 0.00 0.00 30 1013.7
20220624100829 61 184 0.0 0.0 0.00 0.00 0.00 31 1013.7
20220624100254 60 184 0.0 0.0 0.00 0.00 0.00 31 1013.7
20220624095759 60 184 0.0 0.0 0.00 0.00 0.00 31 1013.7
20220624095246 60 176 0.0 0.0 0.00 0.00 0.00 31 1013.7
20220624094745 60 184 0.0 0.0 0.00 0.00 0.00 33 1013.7
20220624094227 60 184 0.0 0.0 0.00 0.00 0.00 34 1013.7
20220624093723 60 184 0.0 0.0 0.00 0.00 0.00 36 1013.7
20220624093153 60 178 0.0 0.0 0.00 0.00 0.00 36 1013.7
20220624092641 60 178 0.0 0.0 0.00 0.00 0.00 36 1013.7
20220624092137 60 191 0.0 0.0 0.00 0.00 0.00 36 1013.7
20220624091617 60 184 0.0 0.0 0.00 0.00 0.00 36 1013.7
20220624091111 60 181 0.0 0.0 0.00 0.00 0.00 36 1013.7
20220624090559 60 184 0.0 0.0 0.00 0.00 0.00 36 1013.7
20220624090056 60 178 0.0 0.0 0.00 0.00 0.00 36 1013.7
20220624085535 60 178 0.0 0.0 0.00 0.00 0.00 36 1013.7
20220624085031 60 188 0.0 0.0 0.00 0.00 0.00 35 1013.7
20220624084517 60 189 0.0 0.0 0.00 0.00 0.00 35 1013.7
20220624084018 60 182 0.0 0.0 0.00 0.00 0.00 35 1013.3
20220624083512 60 167 0.0 0.0 0.00 0.00 0.00 35 1013.3
20220624082958 60 206 0.0 0.0 0.00 0.00 0.00 36 1013.3
20220624082456 60 179 0.0 0.0 0.00 0.00 0.00 36 1013.3
20220624081939 59 180 0.0 0.0 0.00 0.00 0.00 35 1013.3
20220624081431 59 174 0.0 0.0 0.00 0.00 0.00 35 1013.3
20220624080917 59 180 0.0 0.0 0.00 0.00 0.00 34 1013.3
20220624080415 60 184 0.0 0.0 0.00 0.00 0.00 35 1013.3
20220624075914 60 180 0.0 0.0 0.00 0.00 0.00 33 1013.3
20220624075354 60 175 0.0 0.0 0.00 0.00 0.00 33 1013.3
20220624074857 60 183 0.0 0.0 0.00 0.00 0.00 33 1013.3
20220624074338 60 180 0.0 0.0 0.00 0.00 0.00 33 1013.3
20220624073839 60 181 0.0 0.0 0.00 0.00 0.00 33 1013.3
20220624073316 60 185 0.0 0.0 0.00 0.00 0.00 32 1013.3
20220624072818 60 185 0.0 0.0 0.00 0.00 0.00 32 1013.3
20220624072312 60 181 0.0 0.0 0.00 0.00 0.00 32 1013.7
20220624071759 60 181 0.0 0.0 0.00 0.00 0.00 32 1013.7
20220624071234 60 182 0.0 0.0 0.00 0.00 0.00 33 1013.7
20220624070733 60 173 0.0 1.0 0.00 0.00 0.00 33 1013.7
20220624070231 60 189 0.0 1.0 0.00 0.00 0.00 33 1013.7
20220624065716 60 184 0.0 0.0 0.00 0.00 0.00 35 1013.7
20220624065218 60 188 0.0 0.0 0.00 0.00 0.00 35 1013.7
20220624064712 60 173 0.0 0.0 0.00 0.00 0.00 36 1013.7
20220624064157 60 179 0.0 0.0 0.00 0.00 0.00 36 1013.7
20220624063656 60 191 0.0 0.0 0.00 0.00 0.00 36 1013.7
20220624063153 60 175 0.0 0.0 0.00 0.00 0.00 36 1013.7
20220624062640 60 179 0.0 0.0 0.00 0.00 0.00 37 1013.7
20220624062142 59 173 0.0 0.0 0.00 0.00 0.00 37 1014.0
20220624061615 59 166 0.0 0.0 0.00 0.00 0.00 38 1013.7
20220624061114 59 179 0.0 0.0 0.00 0.00 0.00 38 1014.0
20220624060556 59 184 0.0 0.0 0.00 0.00 0.00 38 1013.7
20220624060057 59 168 0.0 0.0 0.00 0.00 0.00 39 1013.7
20220624055554 59 182 0.0 0.0 0.00 0.00 0.00 39 1013.7
20220624055045 59 180 0.0 0.0 0.00 0.00 0.00 39 1013.7
20220624054532 59 180 0.0 0.0 0.00 0.00 0.00 38 1013.7
20220624054017 59 173 0.0 0.0 0.00 0.00 0.00 37 1013.7
20220624053514 59 173 0.0 0.0 0.00 0.00 0.00 35 1013.7